Regional Weather Roundup
Issued by NWS Upton, NY

Current Version | Previous Version | Graphics & Text | Print | Product List | Glossary Off
Versions: 1 2 3 4 5 6 7 8 9 10 11 12 13 14 15 16 17 18 19 20 21 22 23 24 25 26 27 28 29 30 31 32 33 34 35 36 37 38 39 40 41 42 43 44 45 46 47 48 49

000
ASUS41 KOKX 012205
RWROKX

REGIONAL WEATHER ROUNDUP
NATIONAL WEATHER SERVICE NEW YORK NY
500 PM EST SUN MAR 01 2015

NOTE: "FAIR" INDICATES FEW OR NO CLOUDS BELOW 12,000 FEET WITH NO
SIGNIFICANT WEATHER AND/OR OBSTRUCTIONS TO VISIBILITY.

NYZ071-072-176-178-NJZ106-104-012300-
NEW YORK CITY METRO AREA


CITY           SKY/WX    TMP DP  RH WIND       PRES   REMARKS
CENTRAL PARK   SNOW      27  22  81 CALM      30.39F VSB 1/2
LAGUARDIA APRT SNOW      26  22  84 S5        30.38F VSB 1/2 WCI  20
KENNEDY INTL   LGT SNOW  26  22  84 CALM      30.40F VSB 1
NEWARK/LIBERTY LGTSLEET  25  22  88 CALM      30.39F FOG
BRNX BOT. GARD   N/A    N/A N/A N/A E1        30.39F
TETERBORO      SNOW      24  21  88 SW3       30.38F VSB 1/2
$$

NYZ177-179-078>081-012300-
LONG ISLAND NEW YORK

CITY           SKY/WX    TMP DP  RH WIND       PRES   REMARKS
FARMINGDALE    LGT SNOW  26  24  92 CALM      30.38F VSB 3/4
ISLIP          SNOW      27  24  89 CALM      30.37F VSB 1/2
SHIRLEY        SNOW      28  25  88 S3        30.40F VSB 1/2
WESTHAMPTON    SNOW      29  25  85 CALM      30.40F VSB 1/2
MONTAUK POINT    N/A     31  27  85 SW3       30.41F
$$

NYZ052-065-067-012300-
HUDSON VALLEY

CITY           SKY/WX    TMP DP  RH WIND       PRES   REMARKS
WHITE PLAINS   SNOW      23  21  92 S5        30.35F VSB 1/2 WCI  17
NEWBURGH       NOT AVBL
MONTGOMERY     SNOW      23  20  88 CALM      30.33F VSB 1/2
POUGHKEEPSIE   SNOW      25  20  81 S3        30.35F VSB 1/2
ALBANY         LGT SNOW  24  18  77 S14G21    30.31F VSB 1   WCI  12
$$

NJZ001-105-106-008-010-013-015-019>022-104-012300-
NEW JERSEY

CITY           SKY/WX    TMP DP  RH WIND       PRES   REMARKS
NEWARK/LIBERTY LGTSLEET  25  22  88 CALM      30.39F FOG
TETERBORO      SNOW      24  21  88 SW3       30.38F VSB 1/2
CALDWELL       SNOW      23  19  85 CALM      30.38F VSB 1/2
MORRISTOWN     LGT SNOW  23  21  93 CALM      30.39F VSB 3/4
SOMERVILLE     LGT SNOW  25  21  85 CALM      30.37F FOG
SUSSEX         SNOW      23  19  85 CALM      30.33F VSB 1/2
ANDOVER          N/A     22  20  92 CALM      30.33F
TRENTON        FRZ RAIN  27  23  85 S6        30.37F FOG     WCI  20
MILLVILLE      FRZ RAIN  31  30  96 CALM      30.38F FOG
ATLANTIC CITY  FRZ RAIN  31  29  92 S3        30.38F FOG
WRIGHTSTOWN    FRZ RAIN  29  28  96 S5        30.34F WCI  24
TOMS RIVER     CLOUDY    30  28  93 S3        30.38F
BELMAR         CLOUDY    28  21  74 CALM      30.37F
$$

PAZ047>061-062-071-012300-
EASTERN PENNSYLVANIA

CITY           SKY/WX    TMP DP  RH WIND       PRES   REMARKS
PHILADELPHIA   FRZ RAIN  30  26  85 S7        30.38F FOG     WCI  23
ALLENTOWN      SNOW      25  20  81 CALM      30.35F VSB 1/2
SCRANTON       LGT SNOW  25  20  81 SW5       30.26F VSB 3/4 WCI  19
$$

CTZ002-004>006-009-010-012-RIZ004-006-007-MAZ004-011-015-012300-
SOUTHERN NEW ENGLAND
 IN CT

CITY           SKY/WX    TMP DP  RH WIND       PRES   REMARKS
BRADLEY INTL   LGT SNOW  27  22  81 S6        30.35F VSB 3/4 WCI  20
HARTFORD       LGT SNOW  26  23  88 S7        30.38F VSB 3/4 WCI  18
DANBURY        SNOW      24  20  84 CALM      30.36F VSB 1/2
WTRBRY/OXFORD  SNOW      25  16  68 S5        30.34F VSB 1/2 WCI  19
BRIDGEPORT     SNOW      26  25  96 S5        30.40F VSB 1/4 WCI  20
MERIDEN        SNOW      25  22  88 S3        30.38F VSB 1/4
NEW HAVEN      SNOW      26  23  88 SE3       30.38F VSB 1/4
CHESTER        SNOW      27  27 100 S5        30.37F VSB 1/4 WCI  21
GROTON         SNOW      27  26  96 SE5       30.39F VSB 1/4 WCI  22
WILLIMANTIC    SNOW      26  23  88 S5        30.38F VSB 1/2 WCI  20

 IN RI

CITY           SKY/WX    TMP DP  RH WIND       PRES   REMARKS
PROVIDENCE     LGT SNOW  27  25  92 S6        30.40F VSB 3/4 WCI  20
BLOCK ISLAND   CLOUDY    30  27  86 SW8       30.39F VSB 1   WCI  23
WESTERLY       SNOW      28  26  92 S5        30.40F VSB 1/2 WCI  23

 IN MA

CITY           SKY/WX    TMP DP  RH WIND       PRES   REMARKS
BOSTON         LGT SNOW  27  22  81 S10       30.40F WCI  17
WORCESTER      LGT SNOW  23  19  85 S7        30.31F VSB 1   WCI  15
WESTFIELD      LGT SNOW  24  20  84 S7        30.35F FOG     WCI  16
PROVINCETOWN   CLOUDY    27  25  93 S9        30.42F WCI  17
NANTUCKET      CLOUDY    31  23  72 S8        30.44F WCI  23
$$

ANZ330-335-338-340-345-350-353-355-012300-
COASTAL MARINE OBSERVATIONS


STATION/POSITION TIME  SKY/WX   TEMP    WIND        PRES    VSBY  WAVE
                                AIR SEA DIR/SP/G                  HT/PER
                 (UTC)          (F)     (DEG/KT/KT) (MB)    (MI)  (FT/S)
NY HARB ENTRANCE 2200            28 38  160/  2/  4 1028.7          2/10
4S FIRE IS       NOT AVBL
20S FIRE ISLAND  2100               37              1030.8          2/ 8
23SW MTP         2200                                 N/A           2/ 9
HUDSON CANYON    NOT AVBL
EXECUTION ROCKS  NOT AVBL
WESTERN LI SOUND NOT AVBL
CENTRAL LI SOUND NOT AVBL
EASTERN LI SOUND NOT AVBL
ROBBINS REEF     2200            24     160/  5/  6 1027.9
$$


>>>>>>>>>>>>>>>>>>>>>>>>>>>> KEY <<<<<<<<<<<<<<<<<<<<<<<<<<<
>                                                          <
>     SKY/WX - SKY CONDITION/PRESENT WEATHER               <
>     TMP    - TEMPERATURE IN FAHRENHEIT                   <
>     DP     - DEWPOINT IN FAHRENHEIT                      <
>     RH     - RELATIVE HUMIDITY IN PERCENT                <
>     WIND   - DIRECTION AND SPEED IN MPH                  <
>     PRES   - MEAN SEA LEVEL PRESSURE IN INCHES OF HG     <
>     WCI    - WIND CHILL INDEX                            <
>     VSB    - VISIBILITY IN MILES                         <
>     HX     - HEAT INDEX                                  <
>     TC     - TEMPERATURE IN CELSIUS                      <
>     VRB    - VARIABLE WIND DIRECTION                     <
>                                                          <
>>>>>>>>>>>>>>>>>>>>>>>>>>>> KEY <<<<<<<<<<<<<<<<<<<<<<<<<<<




USA.gov is the U.S. government's official web portal to all federal, state and local government web resources and services.